Regional Weather Roundup
Issued by NWS Cleveland, OH

Home | Current Version | Previous Version | Graphics & Text | Print | Product List | Glossary On
Versions: 1 2 3 4 5 6 7 8 9 10 11 12 13 14 15 16 17 18 19 20 21 22 23 24 25 26 27 28 29 30 31 32 33 34 35 36 37 38 39 40 41 42 43 44 45 46 47 48 49 50
032
ASUS41 KCLE 120512
RWRCLE
OHIO REGIONAL WEATHER ROUNDUP
NATIONAL WEATHER SERVICE WILMINGTON, OH
1200 AM EST FRI FEB 12 2016

NOTE: "FAIR" INDICATES FEW OR NO CLOUDS BELOW 12,000 FEET WITH NO
SIGNIFICANT WEATHER AND/OR OBSTRUCTIONS TO VISIBILITY.

OHZ001>008-015>018-024>027-034-035-043-044-120600-
   NORTHWEST OHIO

CITY           SKY/WX    TMP DP  RH WIND       PRES   REMARKS
DEFIANCE       FAIR      16   8  71 CALM      30.27F
FINDLAY        MOCLDY    16   8  71 SW7       30.25F WCI   6
TOLEDO EXPRESS FAIR      12   6  77 SW5       30.25F WCI   4
TOLEDO EXEC    FAIR      14   6  70 SW7       30.27S WCI   4
LIMA           FAIR      14   5  67 SW5       30.25F WCI   6
$$

OHZ009>014-019>023-028>033-038-089-120600-
   NORTHEAST OHIO

CITY           SKY/WX    TMP DP  RH WIND       PRES   REMARKS
CLE-HOPKINS    FAIR       9   2  73 SW7       30.27F WCI  -2
CLE-LAKEFRONT  FLURRIES  16   5  62 SW13      30.25S WCI   2
CUY CO. ARPT   NOT AVBL
LORAIN-ELYRIA  FAIR       6   0  76 SW7       30.26S WCI  -6
ASHTABULA      LGT SNOW  13   9  84 SW6       30.23F FOG     WCI   4
AKRON-CANTON   FAIR       8   0  69 SW6       30.23S WCI  -2
WOOSTER        CLOUDY     4  -1  80 CALM      30.24F
MANSFIELD      CLOUDY    12   6  77 S6        30.22F WCI   3
YOUNGSTOWN     FAIR       7   3  84 SW6       30.22F WCI  -3
$$

OHZ042-051>053-060>062-070>072-077>081-120600-
  SOUTHWEST OHIO

CITY           SKY/WX    TMP DP  RH WIND       PRES   REMARKS
CINC-COVINGTON MOCLDY    20   8  60 E5        30.27F WCI  13
CINC-LUNKEN    FAIR      18  12  77 CALM      30.31F
HAMILTON       FAIR      15  11  83 E3        30.30F
DAYTON         FAIR      15   7  70 CALM      30.26F
WRIGHT-PAT AFB CLEAR     14   6  71 SE2       30.27F
DAYTON GENERAL FAIR      14   5  67 CALM      30.26F
WILMINGTON     FAIR       9   4  80 CALM      30.26F
$$

OHZ036-037-039>041-045>050-054>059-063>069-073>076-082>088-120600-
  CENTRAL AND SOUTHEAST OHIO

CITY           SKY/WX    TMP DP  RH WIND       PRES   REMARKS
COLUMBUS       FAIR      12   6  77 CALM      30.28S
OSU AIRPORT    FAIR      13   8  81 SW5       30.27S WCI   5
BOLTON FIELD   FAIR      10   7  89 MISG      30.28F
RICKENBACK AFB FAIR       8   4  85 CALM      30.28F
NEWARK         FAIR       7   2  80 CALM      30.27F
MARION         CLOUDY    17   6  62 W6        30.25F WCI   9
LANCASTER      FAIR       3  -1  83 CALM      30.28F
ZANESVILLE     FAIR       8   2  76 CALM      30.27F
NEW PHILLY     CLOUDY     9   2  73 CALM      30.28F
$$




USA.gov is the U.S. government's official web portal to all federal, state and local government web resources and services.